Regional Weather Roundup
Issued by NWS

Home | Current Version | Previous Version | Text Only | Print | Product List | Glossary Off
Versions: 1 2 3 4 5 6 7 8 9 10 11 12 13 14 15 16 17 18 19 20 21 22 23 24 25 26 27 28 29 30 31 32 33 34 35 36 37 38 39 40 41 42 43 44 45 46 47 48 49 50

000
ASUS43 KMPX 032010
RWRMN
WEATHER ROUNDUP FOR MINNESOTA
NATIONAL WEATHER SERVICE TWIN CITIES/CHANHASSEN MN
300 PM CDT TUE MAY 03 2016


NOTE: "FAIR" INDICATES FEW OR NO CLOUDS BELOW 12,000 FEET WITH NO
SIGNIFICANT WEATHER AND/OR OBSTRUCTIONS TO VISIBILITY. N/A MEANS
CURRENT SKY AND/OR WEATHER CONDITIONS ARE NOT AVAILABLE.

MNZ060>063-068>070-032100-
   Twin Cities Metro

CITY           SKY/WX    TMP DP  RH WIND       PRES   REMARKS
TWIN CITIES    PTSUNNY   71  39  31 W15G30    29.75F
ST PAUL        PTSUNNY   70  40  33 W21G28    29.75F
CRYSTAL        CLOUDY    72  38  29 W17G29    29.73F
BLAINE         PTSUNNY   70  39  32 MISG        N/A
EDEN PRAIRIE   PTSUNNY   72  37  28 W14G26    29.75F
SOUTH ST PAUL  MOSUNNY   70  37  29 W15G28    29.75F
LAKE ELMO      FAIR      68  41  37 W16G24    29.75F
$$
MNZ001>005-007-008-013>017-022>024-027-028-032100-
   Northwest Minnesota

CITY           SKY/WX    TMP DP  RH WIND       PRES   REMARKS
BEMIDJI        SUNNY     64  26  24 NW20G31   29.79R
HALLOCK        SUNNY     64  21  19 N24G31    29.90R
ROSEAU         SUNNY     64  27  24 N22       29.85S
WARROAD        MOSUNNY   63  34  34 NW16G30   29.85R
THIEF RVR FALL SUNNY     63  27  25 NW25      29.87F
CROOKSTON      SUNNY     66  30  26 N28G37    29.87S
FOSSTON        SUNNY     64  25  22 N25G33    29.84R
DETROIT LAKES  SUNNY     66  28  24 N16G37    29.82R
MOORHEAD       SUNNY     70  25  18 N31G38    29.84S
PARK RAPIDS    SUNNY     68  24  19 N24G31    29.76R
MAHNOMEN       FAIR      65  25  21 N25G40    29.82R
$$
MNZ006-009>011-018-025>026-032100-
   North Central Minnesota

CITY           SKY/WX    TMP DP  RH WIND       PRES   REMARKS
BAUDETTE       SUNNY     61  30  31 N22G28    29.83R
FLAG ISLAND    MOSUNNY   55  32  41 N20G28    29.84R
INTL FALLS     PTSUNNY   62  30  29 N17G24    29.77R
WASKISH        SUNNY     63  28  27 NW15G26   29.81R
BIG FORK       SUNNY     64  27  24 NW12G23   29.75R
LONGVILLE      SUNNY     66  27  22 N9G24     29.75R
GRAND RAPIDS   SUNNY     64  28  25 NW21G30   29.74R
CRANE LAKE     SUNNY     61  28  29 NW12G25   29.74R
ORR            MOSUNNY   64  21  19 NW12G22   29.70R
COOK           MOSUNNY   63  30  29 NW15G22   29.71R
WALKER         FAIR      65  27  24 NW18G28   29.76R
$$
MNZ012-019>021-037-032100-
   Northeast Minnesota

CITY           SKY/WX    TMP DP  RH WIND       PRES   REMARKS
DULUTH         PTSUNNY   65  29  25 NW21G26   29.67R
ELY            MOSUNNY   61  28  29 NW12G30   29.68R
HIBBING        MOSUNNY   66  30  26 NW18G33   29.69S
EVELETH        SUNNY     63  27  25 N15G28    29.70R
DULUTH HARBOR  MOSUNNY   64  30  27 NW9       29.66R
TWO HARBORS      N/A     70  39  32 NW10G20   29.64S
SILVER BAY     PTSUNNY   63  32  31 N8        29.64S
GRAND MARAIS     N/A     60  38  43 NW9G28    29.64R
G MARAIS ARPRT RAIN      52  37  58 N9G25     29.66R
$$
MNZ029>031-032-039>041-046>048-054>057-064-032100-
   West Central Minnesota

CITY           SKY/WX    TMP DP  RH WIND       PRES   REMARKS
FERGUS FALLS   SUNNY     70  30  23 N24G35    29.77R
WHEATON        SUNNY     75  37  25 NW25G36   29.81R
MORRIS         MOSUNNY   75  37  25 NW29G40   29.75F
ALEXANDRIA     MOSUNNY   73  37  27 NW21G31   29.76F
ELBOW LAKE     FAIR      69  30  23 NW24G35   29.78S
WADENA         SUNNY     70  30  23 N18G26    29.75S
GLENWOOD       SUNNY     72  39  30 NW22G39   29.76F
APPLETON       MOSUNNY   73  37  27 W18G26    29.78F
BENSON         MOSUNNY   75  34  22 NW22G32   29.76F
ORTONVILLE     PTSUNNY   72  41  33 W14G21    29.79F
MADISON        CLOUDY    70  37  30 NW18G25   29.81F
WILLMAR        FAIR      73  39  29 NW20G28   29.78F
$$
MNZ033>034-036-042>043-049>051-058-059-032100-
   Central Minnesota

CITY           SKY/WX    TMP DP  RH WIND       PRES   REMARKS
ST CLOUD       CLOUDY    69  40  34 W21G28    29.73F
SAUK CENTRE    FAIR      69  42  37 W18G25    29.74F
PAYNESVILLE    MOSUNNY   71  37  27 NW17G30   29.76F
AITKIN         SUNNY     72  23  16 NW9G20    29.70R
PINE RIVER     SUNNY     68  37  32 N16G24    29.77S
BRAINERD       MOSUNNY   69  32  25 N21G30    29.71F
STAPLES        SUNNY     70  25  18 N20G31    29.73R
LONG PRAIRIE   PTSUNNY   70  41  35 NW20G26   29.74F
LITTLE FALLS   PTSUNNY   68  37  32 W13G21    29.72F
LITCHFIELD     MOSUNNY   72  39  30 W14G21    29.77F
BUFFALO        CLOUDY    69  39  33 W13       29.75F
MAPLE LAKE     CLOUDY    69  42  37 W10G22    29.75F
HUTCHINSON     MOSUNNY   71  41  33 W18       29.78F
$$
MNZ037-044-045-052-053-032100-
   East Central Minnesota

CITY           SKY/WX    TMP DP  RH WIND       PRES   REMARKS
PRINCETON      PTSUNNY   70  39  32 W18G24    29.72F
MORA           PTSUNNY   64  39  39 W14G24    29.72F
CAMBRIDGE      CLOUDY    70  46  43 W14G25    29.70F
RUSH CITY      CLOUDY    70  42  36 W14G24    29.71F
MOOSE LAKE     PTSUNNY   70  36  28 NW14G29   29.66S
HINCKLEY       CLOUDY    68  41  37 W13G23    29.69F
CLOQUET        PTSUNNY   70  25  18 N17       29.68R
MCGREGOR       SUNNY     68  30  24 NW18G25   29.71R
$$
MNZ071>073-080-081-089-090-097-098-032100-
   Southwest Minnesota

CITY           SKY/WX    TMP DP  RH WIND       PRES   REMARKS
MONTEVIDEO     MOSUNNY   73  39  29 NW18G26   29.81F
GRANITE FALLS  PTSUNNY   74  40  29 W15G26    29.82F
CANBY          CLOUDY    71  42  34 W20G29    29.85F
MARSHALL       MOSUNNY   69  37  30 NW21G28   29.82F
REDWOOD FALLS  MOSUNNY   71  39  31 NW17G30   29.80F
OLIVIA         MOSUNNY   70  41  35 W20       29.78F
PIPESTONE      MOSUNNY   70  30  23 NW18G29   29.88F
WINDOM         PTSUNNY   68  41  37 W22G30    29.85F
WORTHINGTON    CLOUDY    65  45  48 W24G32    29.88F
JACKSON        MOSUNNY   66  41  39 W25       29.87F
TRACY          SUNNY     72  40  32 NW18G29   29.84F
SLAYTON        PTSUNNY   68  41  36 W23G30    29.87F
$$
MNZ065>067-074>077-082>085-091>093-032100-
   South Central Minnesota

CITY           SKY/WX    TMP DP  RH WIND       PRES   REMARKS
MANKATO        MOSUNNY   68  37  32 W21G32    29.81F
NEW ULM        MOSUNNY   68  39  34 W21G26    29.81F
ST JAMES       MOSUNNY   64  39  39 W18G30    29.83F
FAIRMONT       PTSUNNY   66  41  39 W18       29.85F
GLENCOE        MOSUNNY   73  44  35 W17G26    29.77F
FARIBAULT      MOSUNNY   68  37  32 W13G21    29.81F
OWATONNA       MOSUNNY   70  36  28 W25G33    29.81F
WASECA         MOSUNNY   70  36  28 W17G25    29.83F
ALBERT LEA     MOSUNNY   66  36  32 SW13G24   29.83F
$$
MNZ078>079-086>088-094>096-032100-
   Southeast Minnesota

CITY           SKY/WX    TMP DP  RH WIND       PRES   REMARKS
ROCHESTER      CLOUDY    67  39  35 W21       29.81F
RED WING       MOSUNNY   72  34  25 W16G26    29.75F
STANTON        PTSUNNY   69  36  29 W15G25    29.76F
DODGE CENTER   MOSUNNY   66  36  32 W17G28    29.81F
WINONA         PTSUNNY   70  34  26 W15G26    29.78F
AUSTIN         MOSUNNY   64  36  34 W14G22    29.83F
PRESTON        PTSUNNY   66  37  35 W18G28    29.83F
$$
ABBREVIATIONS USED IN REMARKS
   TC - TEMPERATURES IN CELSIUS
  WCI - WIND CHILL INDEX
   HX - HEAT INDEX
  VSB - VISIBILITY
$$




USA.gov is the U.S. government's official web portal to all federal, state and local government web resources and services.